This is the latest recevied weather packets stored in our database for station/object VR2OT-10. If no packets are shown the sender has not sent any weather packets the latest 10 day(s).
| Time | Temp. | Humidity | Pressure | Rain* | Wind** | Luminosity | Snow |
|---|---|---|---|---|---|---|---|
| 1777537037 | 24.44° C | 57% | 1013.3 hPa | - | 3.13 m/s, 135° | - | - |
| 1777536139 | 24.44° C | 55% | 1013.5 hPa | - | 3.13 m/s, 135° | - | - |
| 1777534339 | 23.89° C | 54% | 1013.6 hPa | - | 1.79 m/s, 180° | - | - |
| 1777533437 | 23.89° C | 53% | 1013.8 hPa | - | 1.34 m/s, 225° | - | - |
| 1777532537 | 24.44° C | 54% | 1014 hPa | - | 1.79 m/s, 270° | - | - |
| 1777531637 | 24.44° C | 54% | 1014.2 hPa | - | 1.79 m/s, 270° | - | - |
| 1777530738 | 25° C | 57% | 1014.3 hPa | - | 2.24 m/s, 315° | - | - |
| 1777529838 | 25° C | 56% | 1014.3 hPa | - | 2.68 m/s, 315° | - | - |
| 1777528939 | 24.44° C | 57% | 1014.6 hPa | - | 4.02 m/s, 315° | - | - |
| 1777528038 | 24.44° C | 59% | 1014.6 hPa | - | 4.02 m/s, 315° | - | - |
| 1777527137 | 24.44° C | 58% | 1014.8 hPa | - | 2.24 m/s, 315° | - | - |
| 1777526238 | 24.44° C | 59% | 1015.1 hPa | - | 2.68 m/s, 315° | - | - |
| 1777525339 | 23.33° C | 61% | 1015.2 hPa | - | 2.68 m/s, 315° | - | - |
| 1777524438 | 22.78° C | 60% | 1015.3 hPa | - | 2.24 m/s, 315° | - | - |
| 1777523538 | 22.78° C | 56% | 1015.5 hPa | - | 2.68 m/s, 315° | - | - |
| 1777522637 | 22.78° C | 59% | 1015.5 hPa | - | 1.34 m/s, 315° | - | - |
| 1777521737 | 22.78° C | 58% | 1015.6 hPa | - | 2.68 m/s, 315° | - | - |
| 1777519938 | 22.22° C | 60% | 1016 hPa | - | 3.58 m/s, 315° | - | - |
| 1777519037 | 22.22° C | 61% | 1016 hPa | - | 3.13 m/s, 315° | - | - |
| 1777518138 | 21.67° C | 62% | 1016.1 hPa | - | 3.58 m/s, 315° | - | - |
| 1777517237 | 21.67° C | 62% | 1016.2 hPa | - | 3.13 m/s, 315° | - | - |
| 1777514538 | 21.67° C | 66% | 1016.4 hPa | - | 3.13 m/s, 315° | - | - |
| 1777513638 | 21.67° C | 64% | 1016.4 hPa | - | 4.02 m/s, 315° | - | - |
| 1777511838 | 20.56° C | 63% | 1016.3 hPa | - | 4.92 m/s, 315° | - | - |
| 1777510938 | 20.56° C | 65% | 1016.1 hPa | - | 2.68 m/s, 315° | - | - |
* Rain since midnight (hover to see other rain measurements)
** Current wind speed in m/s (hover to see current wind gust speed)